Notices

What's New in latest Release from April 7th, 2021:

- Updated Glossary, including Speed of Maximum Gust, and Total Hourly Precipitation

- Updated national and regional climate services offices contacts and prices information

- Addition of station inventory lists for 1981-2010, 1971-2000, and 1961-1990 Normals.

If you haven't already, please take our survey and provide feedback about our website: https://eccc.sondage-survey.ca/f/LanguageSelection.aspx?s=442ca660-fcf1-47c0-95a9-59707d6fd709

Hourly Data Report for May 05, 2020

TRENTON A
ONTARIO
Current Station Operator: DND

44°07'00.000" N
77°32'00.000" W
86.30 m
6158875
71621
YTR

Download Data

Hourly Data (May 2020)
Hourly Data Report for May 5, 2020
TIME
LST
Temp Definition
°C
Dew Point Definition
°C
Rel Hum Definition
%
Precip. Amount Definition
mm

Wind Dir Definition
10's deg

Wind Spd Definition
km/h
Visibility Definition
km
Stn Press Definition
kPa
Hmdx Definition


Wind Chill Definition


Weather Definition


00:00 2.5 -7.0 46   2 9 24.1 100.71     Clear
01:00 2.6 -7.5 44   36 15 24.1 100.71     Clear
02:00 1.8 -8.3 43   36 13 24.1 100.70     Clear
03:00 0.6 -7.9 49   36 9 24.1 100.73     Clear
04:00 -0.2 -8.2 51   36 8 24.1 100.69   -3 Clear
05:00 -1.1 -7.4 58   31 5 24.1 100.72   -3 Mainly Clear
06:00 0.6 -7.4 51     0 24.1 100.73     Mainly Clear
07:00 2.0 -7.6 45   33 17 24.1 100.74     Mainly Clear
08:00 3.0 -7.6 42   30 8 24.1 100.73     Mainly Clear
09:00 3.8 -8.6 37   23 4 24.1 100.74     Mainly Clear
10:00 5.5 -8.2 34   33 5 24.1 100.71     Mainly Clear
11:00 6.8 -7.8 32   36 8 24.1 100.61     Mainly Clear
12:00 8.0 -7.1 31   30 8 24.1 100.55     Mainly Clear
13:00 8.4 -2.5 45   21 21 24.1 100.55     Mostly Cloudy
14:00 7.4 -3.3 45   21 17 24.1 100.55     Mostly Cloudy
15:00 7.4 -3.6 44   22 21 24.1 100.47     Mostly Cloudy
16:00 8.4 -2.8 44   22 15 24.1 100.42     Mostly Cloudy
17:00 7.4 -2.5 48   19 18 24.1 100.43     Mostly Cloudy
18:00 6.1 -3.7 48   22 17 24.1 100.43     Mostly Cloudy
19:00 5.2 -4.1 49   20 15 24.1 100.46     Mostly Cloudy
20:00 4.7 -3.1 55     0 24.1 100.47     Mostly Cloudy
21:00 4.1 -1.8 64   15 5 24.1 100.50     Mostly Cloudy
22:00 2.3 -1.7 74   6 4 24.1 100.48     Mostly Cloudy
23:00 1.0 -2.5 76   3 8 24.1 100.48     Mostly Cloudy

Notes on Data Quality.

Legend

  • E = Estimated
  • M = Missing
  • NA = Not Available*
  • [empty] = Indicates an unobserved value
Date modified: